[[{"header":{"parameterUnit":"m.s-1","parameterCategory":2,"la1":30.2991,"la2":30.254,"lo1":-89.0895,"lo2":-89.0444,"dy":0.0017,"dx":0.0017,"nx":28,"ny":28,"refTime":"2024-04-15T21:00:00:Z","depth":"0","parameterNumber":2,"parameterNumberName":"U-component_of_CURRENTS"},"data":[0,0,0,0,0,0,0,0,0,0,0,0,0,0,0,0,0,0,0,0,0,0,0,0,0,0,0,0,0,0,0,0,0,0,0,0,0,0,0,0,0,0,0,0,0,0,0,0,0,0,0,0,0,0,0,0,0,0,0.1753,0.1753,0,0.179,0.179,0.1791,0.1811,0.1811,0.1811,0.1811,0.1866,0.1867,0.1869,0,0,0,0,0,0,0,0,0,0,0,0,0,0.179,0.1789,0.1753,0.1753,0.1754,0.179,0.179,0.1791,0.1811,0.1811,0.1811,0.1811,0.1865,0.1867,0.1869,0,0,0,0,0,0,0,0,0,0,0,0,0,0.1795,0.1788,0.1753,0.1768,0.177,0.179,0.179,0.1791,0.1811,0.1811,0.1811,0.1811,0.1865,0.1867,0.1869,0.1881,0,0,0.1876,0.1876,0,0,0,0,0,0,0,0,0.1795,0.1794,0.1765,0.1767,0.1769,0.1796,0.1823,0.1822,0.1811,0.1796,0.1811,0.1811,0.1844,0.1848,0.1855,0.1884,0.1886,0.1876,0.1877,0.1878,0.1879,0,0,0,0,0,0,0,0.1794,0.1793,0.1768,0.1766,0.1768,0.1804,0.1804,0.1824,0.182,0.1797,0.1799,0.1802,0.1845,0.1853,0.1856,0.1887,0.1876,0.1878,0.1879,0.188,0.1965,0.1966,0,0,0,0,0,0,0.1784,0.1792,0.1767,0.1769,0.1782,0.1803,0.1803,0.1787,0.1819,0.1824,0.1802,0.1803,0.1849,0.1854,0.1858,0.1912,0.1878,0.188,0.1881,0.1964,0.1965,0.1966,0,0,0,0,0,0,0.1784,0.1781,0.1765,0.1783,0.1783,0.1801,0.1784,0.1788,0.1797,0.1823,0.1828,0.1807,0.1849,0.1855,0.188,0.1912,0.1881,0.1883,0.1963,0.1964,0.1966,0.1995,0,0,0,0,0,0,0.1785,0.178,0.1768,0.1781,0.1782,0.1782,0.1785,0.1789,0.1799,0.18,0.1828,0.1834,0.185,0.1876,0.1882,0.1915,0.1884,0.1961,0.1963,0.1965,0.1992,0.1997,0.2001,0,0,0,0,0,0.1786,0.1775,0.1767,0.1765,0.1763,0.1782,0.1786,0.18,0.1799,0.1807,0.1824,0.1833,0.1893,0.1879,0.1885,0.1919,0.196,0.1963,0.1965,0.199,0.1996,0.2001,0,0,0,0,0,0,0.1796,0.1776,0.1768,0.1753,0.1766,0.1785,0.1795,0.1799,0.1818,0.182,0.1839,0.1846,0.1883,0.1891,0.1875,0.1949,0.1931,0.1934,0.1948,0.1954,0.1958,0.1976,0.1886,0,0,0,0,0,0.1787,0.1766,0.1768,0.1758,0.1762,0.1776,0.1785,0.1794,0.1811,0.182,0.1837,0.1863,0.1898,0.1915,0.1941,0.1974,0.1989,0.2002,0.2006,0.2009,0.2029,0.2081,0.2092,0.1973,0.1973,0.1973,0,0,0.1788,0.1777,0.1765,0.1758,0.1768,0.1784,0.1782,0.1798,0.182,0.1823,0.1855,0.1875,0.1908,0.1952,0.197,0.1963,0.2045,0.2012,0.2015,0.2033,0.2085,0.2097,0.2107,0.1975,0.1975,0.1974,0,0,0.1793,0.177,0.1759,0.1768,0.1779,0.1792,0.1794,0.1811,0.1828,0.1856,0.1873,0.1914,0.1946,0.1991,0.2016,0.2058,0.2063,0.2059,0.21,0.215,0.2161,0.2171,0.2177,0.2187,0.2063,0.2063,0.2063,0,0.1799,0.1777,0.1767,0.1771,0.1782,0.1794,0.1807,0.1832,0.1857,0.1878,0.187,0.1953,0.1977,0.2055,0.2074,0.2072,0.2079,0.2077,0.2157,0.2167,0.2176,0.2181,0.2191,0.2065,0.2065,0.2065,0.2065,0,0.1797,0.1788,0.1791,0.1791,0.1806,0.1819,0.1848,0.1872,0.1888,0.1913,0.1978,0.2017,0.2072,0.2087,0.2096,0.218,0.2155,0.2153,0.2145,0.219,0.2191,0.2202,0.2067,0.2067,0.2066,0.2066,0,0,0.1784,0.1785,0.1785,0.179,0.1814,0.1828,0.1873,0.1917,0.1956,0.1992,0.205,0.2121,0.2141,0.2172,0.2195,0.2244,0.2307,0.2228,0.2229,0.2234,0.2386,0.2264,0.2263,0.2316,0.2318,0.2321,0.2349,0,0.1786,0.1788,0.1794,0.1818,0.1824,0.1856,0.1899,0.1946,0.199,0.2052,0.2114,0.2177,0.2175,0.221,0.2262,0.2305,0.2341,0.2298,0.2342,0.2343,0.2231,0.2275,0.2122,0.2126,0.236,0.2362,0.2363,0,0.1773,0.1779,0.179,0.1825,0.1833,0.1859,0.1928,0.1972,0.2066,0.2104,0.2181,0.2223,0.2319,0.2303,0.2404,0.2372,0.2386,0.2407,0.2408,0.2299,0.2242,0.2125,0.2137,0.209,0.2379,0.2378,0.2377,0,0.1751,0.1774,0.1781,0.179,0.1838,0.1864,0.1902,0.1985,0.2035,0.2147,0.2197,0.2297,0.2357,0.2411,0.245,0.2435,0.2537,0.252,0.2419,0.2408,0.2291,0.2266,0.2267,0.2589,0.2589,0.2589,0.2589,0,0.1736,0.1745,0.1771,0.1777,0.1815,0.1852,0.1915,0.1974,0.2067,0.2132,0.2224,0.2291,0.239,0.2451,0.2475,0.2472,0.2556,0.2438,0.2421,0.229,0.2266,0.2228,0.2202,0.259,0.259,0.2589,0.2589,0,0.171,0.172,0.174,0.1785,0.1802,0.1833,0.1913,0.1969,0.2053,0.2144,0.2183,0.2305,0.2368,0.2432,0.2517,0.2487,0.2409,0.2483,0.2296,0.2256,0.2078,0.2057,0.191,0.1866,0.237,0.2367,0.2365,0,0.1696,0.1697,0.1741,0.1765,0.1787,0.1837,0.1881,0.1959,0.2015,0.214,0.2183,0.2272,0.2311,0.2372,0.2341,0.2336,0.2303,0.2194,0.2142,0.2055,0.2023,0.1913,0.1882,0.1992,0.1987,0.1983,0.198,0,0.1695,0.1706,0.1735,0.1769,0.1808,0.1847,0.1905,0.1934,0.2026,0.2083,0.2152,0.2186,0.2205,0.2125,0.2103,0.2087,0.2032,0.2103,0.2088,0.1787,0.1597,0.1549,0.1966,0.1942,0.1946,0.1949,0.1951,0.1952,0.1714,0.173,0.1763,0.1787,0.1826,0.1844,0.1843,0.1895,0.1937,0.1963,0.2047,0.2018,0.1969,0.1892,0.1867,0.1709,0.1735,0.1641,0.1641,0.1553,0.1449,0.1753,0.166,0.1662,0.1664,0.1666,0.1667,0,0.1739,0.1751,0.1781,0.1802,0.1808,0.1827,0.185,0.1819,0.1808,0.1824,0.1828,0.172,0.1605,0.1557,0.139,0.1286,0.1224,0.1252,0.111,0.1124,0.1466,0.1391,0.1145,0.1145,0.1145,0.1145,0.1145,0.1145,0.1765,0.1785,0.1775,0.1769,0.1769,0.1735,0.1713,0.1666,0.1642,0.1531,0.1429,0.14,0.1335,0.1169,0.1027,0.1003,0.0932,0.0778,0.0874,0.1162,0.1201,0.1237,0.1164,0.0874,0.0874,0.0449,0.0445,0.0443]},{"header":{"parameterUnit":"m.s-1","parameterCategory":2,"la1":30.2991,"la2":30.254,"lo1":-89.0895,"lo2":-89.0444,"dy":0.0017,"dx":0.0017,"nx":28,"ny":28,"refTime":"2024-04-15T21:00:00:Z","depth":"0","parameterNumber":3,"parameterNumberName":"V-component_of_CURRENTS"},"data":[0,0,0,0,0,0,0,0,0,0,0,0,0,0,0,0,0,0,0,0,0,0,0,0,0,0,0,0,0,0,0,0,0,0,0,0,0,0,0,0,0,0,0,0,0,0,0,0,0,0,0,0,0,0,0,0,0,0,0.0273,0.0273,0,0.027,0.027,0.027,0.0268,0.0268,0.0268,0.0268,0.0253,0.0253,0.0253,0,0,0,0,0,0,0,0,0,0,0,0,0,0.0291,0.0291,0.0273,0.0273,0.0273,0.027,0.027,0.027,0.0268,0.0268,0.0268,0.0268,0.0253,0.0253,0.0253,0,0,0,0,0,0,0,0,0,0,0,0,0,0.0286,0.0291,0.0273,0.0272,0.0271,0.027,0.027,0.027,0.0268,0.0268,0.0268,0.0268,0.0254,0.0253,0.0253,0.025,0,0,0.0251,0.0251,0,0,0,0,0,0,0,0,0.0286,0.0285,0.0272,0.0272,0.0271,0.0269,0.0271,0.0263,0.0268,0.027,0.0268,0.0268,0.0257,0.0257,0.0257,0.0249,0.0249,0.0251,0.0251,0.025,0.025,0,0,0,0,0,0,0,0.0286,0.0285,0.0272,0.0272,0.0272,0.0276,0.0275,0.027,0.0264,0.0269,0.0269,0.0269,0.0257,0.0257,0.0256,0.0249,0.0251,0.025,0.025,0.025,0.025,0.025,0,0,0,0,0,0,0.0285,0.0285,0.0272,0.0272,0.0278,0.0275,0.0274,0.027,0.0264,0.0263,0.0269,0.0268,0.0258,0.0257,0.0256,0.0266,0.025,0.025,0.0249,0.025,0.025,0.025,0,0,0,0,0,0,0.0286,0.0284,0.0272,0.0279,0.0277,0.0275,0.027,0.027,0.0272,0.0263,0.0262,0.0271,0.0258,0.0256,0.026,0.0265,0.025,0.0249,0.0249,0.025,0.025,0.0279,0,0,0,0,0,0,0.0286,0.0284,0.0282,0.0278,0.0277,0.0277,0.027,0.027,0.0271,0.0271,0.0265,0.0264,0.0258,0.0261,0.0259,0.0264,0.0249,0.0249,0.0249,0.025,0.0278,0.028,0.0283,0,0,0,0,0,0.0287,0.0285,0.0282,0.028,0.0274,0.0277,0.0277,0.0276,0.0272,0.0276,0.0274,0.0264,0.0263,0.0261,0.0259,0.0264,0.0248,0.0249,0.025,0.0276,0.028,0.0283,0,0,0,0,0,0,0.0291,0.0285,0.0281,0.0277,0.0279,0.0277,0.0281,0.0278,0.0279,0.028,0.027,0.0269,0.0272,0.0265,0.0262,0.0265,0.0253,0.0254,0.0274,0.0277,0.028,0.0307,0.0248,0,0,0,0,0,0.0291,0.0289,0.0285,0.0283,0.0285,0.0283,0.0284,0.0284,0.0284,0.0284,0.028,0.0276,0.0273,0.0273,0.0268,0.0273,0.0273,0.0274,0.0276,0.0279,0.03,0.0304,0.0309,0.0253,0.0253,0.0253,0,0,0.029,0.0288,0.0286,0.0284,0.0286,0.0297,0.0284,0.0289,0.0302,0.0282,0.0296,0.0283,0.0275,0.028,0.0281,0.0276,0.0292,0.028,0.0282,0.0302,0.0306,0.0311,0.0316,0.0253,0.0253,0.0253,0,0,0.0299,0.029,0.0296,0.03,0.0305,0.0307,0.031,0.0311,0.0315,0.0324,0.0311,0.0309,0.0304,0.0303,0.03,0.0315,0.0303,0.0305,0.0344,0.0348,0.0353,0.0357,0.0353,0.0357,0.0309,0.0309,0.0309,0,0.0302,0.0308,0.0299,0.0312,0.0323,0.0314,0.0334,0.0336,0.0338,0.0349,0.0334,0.0339,0.0319,0.0338,0.0338,0.0322,0.0321,0.0332,0.0352,0.0357,0.0361,0.0356,0.036,0.0311,0.0311,0.031,0.031,0,0.0317,0.0327,0.0333,0.0348,0.0359,0.0372,0.0378,0.0387,0.0387,0.0392,0.0407,0.0387,0.0397,0.0378,0.0361,0.0381,0.0369,0.0352,0.0346,0.0368,0.0361,0.0365,0.0313,0.0312,0.0312,0.0312,0,0,0.0317,0.034,0.0344,0.0366,0.0381,0.0396,0.0417,0.0442,0.0472,0.0461,0.0503,0.0476,0.0471,0.0468,0.0444,0.0439,0.0447,0.0411,0.0411,0.0412,0.0454,0.0442,0.0444,0.0434,0.0435,0.0436,0.0433,0,0.0338,0.0372,0.0379,0.0422,0.0446,0.0453,0.0482,0.0502,0.0516,0.0551,0.0535,0.056,0.0504,0.0515,0.0501,0.047,0.0461,0.045,0.0429,0.0429,0.042,0.045,0.0477,0.0477,0.0436,0.0437,0.0437,0,0.0354,0.038,0.0422,0.0476,0.0488,0.0513,0.0569,0.0594,0.0632,0.0648,0.0666,0.066,0.0663,0.0611,0.0575,0.0572,0.0521,0.0485,0.0483,0.0472,0.0426,0.0451,0.0485,0.0482,0.0443,0.0442,0.0442,0,0.0368,0.0415,0.0454,0.0468,0.0521,0.0549,0.058,0.0623,0.0673,0.0719,0.0768,0.0756,0.0777,0.0715,0.0637,0.0612,0.0597,0.055,0.0491,0.0488,0.051,0.0508,0.0548,0.0528,0.0528,0.0528,0.0528,0,0.0391,0.0425,0.0465,0.0489,0.0556,0.0578,0.0658,0.0688,0.0758,0.0842,0.0825,0.0893,0.0806,0.0786,0.0686,0.0613,0.0635,0.0516,0.0497,0.0518,0.0517,0.0513,0.0494,0.0527,0.0527,0.0527,0.0527,0,0.0405,0.0425,0.0482,0.0542,0.0566,0.0617,0.0718,0.0785,0.0836,0.095,0.0977,0.101,0.0985,0.0885,0.0796,0.0695,0.0601,0.057,0.0598,0.0582,0.051,0.0491,0.0507,0.0487,0.051,0.0509,0.0509,0,0.0417,0.0444,0.0521,0.0572,0.0604,0.0682,0.0751,0.0819,0.0904,0.103,0.1099,0.1115,0.1144,0.101,0.084,0.068,0.0625,0.059,0.0541,0.0533,0.0497,0.0483,0.0464,0.0573,0.0574,0.0574,0.0574,0,0.0458,0.048,0.0534,0.0624,0.0701,0.0794,0.0894,0.0973,0.1074,0.1173,0.1292,0.1321,0.1214,0.109,0.0874,0.075,0.0601,0.0591,0.0587,0.0565,0.0552,0.0515,0.0539,0.0577,0.0577,0.0577,0.0576,0.0576,0.0498,0.0543,0.0611,0.0697,0.0787,0.0897,0.0978,0.1095,0.1232,0.1375,0.1409,0.1458,0.1302,0.1021,0.0875,0.065,0.062,0.0575,0.0555,0.0544,0.0527,0.0555,0.0565,0.0564,0.0564,0.0564,0.0563,0,0.0553,0.0603,0.0685,0.0792,0.0883,0.0921,0.1074,0.116,0.1314,0.1435,0.1525,0.1483,0.1304,0.1083,0.0795,0.0656,0.0584,0.0583,0.0586,0.0566,0.0606,0.0612,0.0629,0.0629,0.0629,0.0629,0.0629,0.0629,0.0592,0.0668,0.07,0.0846,0.0925,0.1047,0.113,0.1257,0.1363,0.1502,0.1535,0.155,0.1441,0.1041,0.0784,0.0692,0.0612,0.0579,0.0531,0.058,0.0579,0.0577,0.0581,0.0591,0.0591,0.0516,0.0515,0.0515]}],[{"header":{"parameterUnit":"m.s-1","parameterCategory":2,"la1":30.2991,"la2":30.254,"lo1":-89.0895,"lo2":-89.0444,"dy":0.0017,"dx":0.0017,"nx":28,"ny":28,"refTime":"2024-04-15T21:00:00:Z","depth":"2","parameterNumber":2,"parameterNumberName":"U-component_of_CURRENTS"},"data":[0,0,0,0,0,0,0,0,0,0,0,0,0,0,0,0,0,0,0,0,0,0,0,0,0,0,0,0,0,0,0,0,0,0,0,0,0,0,0,0,0,0,0,0,0,0,0,0,0,0,0,0,0,0,0,0,0,0,0.164,0.164,0,0.1666,0.1666,0.1666,0.1661,0.166,0.166,0.1659,0.1716,0.1718,0.172,0,0,0,0,0,0,0,0,0,0,0,0,0,0.1658,0.1657,0.164,0.164,0.1641,0.1666,0.1666,0.1666,0.1661,0.166,0.1659,0.1659,0.1716,0.1718,0.172,0,0,0,0,0,0,0,0,0,0,0,0,0,0.1664,0.1657,0.164,0.1641,0.1641,0.1666,0.1666,0.1667,0.1661,0.166,0.1659,0.1659,0.1715,0.1718,0.1721,0.1754,0,0,0.173,0.1731,0,0,0,0,0,0,0,0,0.1663,0.1663,0.164,0.1641,0.1641,0.1659,0.1693,0.1697,0.1661,0.1653,0.1659,0.1658,0.17,0.1705,0.1711,0.1757,0.1759,0.173,0.1732,0.1733,0.1734,0,0,0,0,0,0,0,0.1663,0.1662,0.165,0.1641,0.1641,0.1664,0.1664,0.1694,0.1682,0.1654,0.1654,0.1656,0.1701,0.1708,0.1712,0.176,0.173,0.1733,0.1734,0.1736,0.1833,0.1833,0,0,0,0,0,0,0.1656,0.1661,0.165,0.1651,0.165,0.1664,0.1664,0.1654,0.1681,0.1684,0.1657,0.1656,0.1703,0.1709,0.1714,0.177,0.1733,0.1736,0.1738,0.1832,0.1833,0.1834,0,0,0,0,0,0,0.1656,0.1654,0.1649,0.1658,0.1658,0.1664,0.1654,0.1655,0.1666,0.1682,0.1686,0.1667,0.1703,0.171,0.1726,0.1772,0.1737,0.174,0.1831,0.1832,0.1833,0.1873,0,0,0,0,0,0,0.1656,0.1654,0.165,0.1657,0.1658,0.1662,0.1655,0.1656,0.1668,0.1667,0.1692,0.1696,0.1703,0.1721,0.1729,0.1775,0.1742,0.183,0.1831,0.1833,0.1871,0.1876,0.188,0,0,0,0,0,0.1657,0.1653,0.165,0.1649,0.165,0.1662,0.1665,0.1667,0.1669,0.1674,0.1679,0.1696,0.1737,0.1724,0.1733,0.1781,0.1829,0.1831,0.1833,0.1869,0.1875,0.188,0,0,0,0,0,0,0.1664,0.1652,0.1649,0.1642,0.1651,0.1661,0.1668,0.1674,0.1684,0.1685,0.1698,0.1702,0.1739,0.1746,0.1731,0.1811,0.1791,0.1794,0.1815,0.1821,0.1825,0.1834,0.1745,0,0,0,0,0,0.1663,0.1653,0.1653,0.1652,0.1654,0.1665,0.1673,0.1677,0.1685,0.1689,0.1707,0.1727,0.1755,0.1772,0.1793,0.1834,0.1845,0.1872,0.1877,0.1881,0.1892,0.1942,0.1953,0.1839,0.1839,0.1839,0,0,0.1667,0.166,0.1656,0.1653,0.166,0.1672,0.1668,0.1682,0.1698,0.1696,0.1725,0.1744,0.1767,0.1807,0.1827,0.1819,0.1914,0.1883,0.1886,0.1896,0.1945,0.1956,0.1966,0.1841,0.184,0.184,0,0,0.1673,0.1663,0.1658,0.1665,0.1674,0.1683,0.1689,0.1704,0.1714,0.1743,0.1748,0.1785,0.1826,0.1852,0.1871,0.1914,0.1933,0.1929,0.1967,0.2015,0.2025,0.2034,0.2043,0.2053,0.1935,0.1935,0.1935,0,0.1682,0.1669,0.1664,0.1667,0.1672,0.1689,0.1696,0.1718,0.1739,0.1761,0.1756,0.1842,0.1854,0.192,0.1927,0.1929,0.1942,0.1946,0.2023,0.2032,0.2041,0.2047,0.2057,0.1937,0.1937,0.1937,0.1936,0,0.1681,0.1679,0.1682,0.1685,0.1694,0.1705,0.1725,0.1754,0.1777,0.1806,0.1875,0.1898,0.1957,0.1969,0.196,0.2038,0.2021,0.202,0.2011,0.2055,0.2058,0.2068,0.194,0.1939,0.1939,0.1938,0,0,0.1678,0.1679,0.1681,0.1687,0.17,0.1713,0.1747,0.1787,0.1832,0.1879,0.1943,0.1996,0.2033,0.2055,0.207,0.2104,0.2161,0.2089,0.209,0.21,0.2245,0.2121,0.2119,0.2179,0.2181,0.2183,0.2216,0,0.168,0.1683,0.1682,0.1704,0.1708,0.1734,0.1771,0.1816,0.1862,0.1933,0.1995,0.2059,0.2062,0.2098,0.2143,0.2154,0.2192,0.215,0.2199,0.22,0.2088,0.2129,0.1931,0.1935,0.2225,0.2227,0.2228,0,0.1668,0.1676,0.1681,0.1714,0.172,0.1746,0.181,0.1846,0.1944,0.1986,0.2079,0.2124,0.2202,0.2191,0.2272,0.2246,0.2257,0.226,0.2261,0.2142,0.2095,0.1943,0.1942,0.2245,0.2243,0.2242,0.2241,0,0.1654,0.1674,0.1678,0.1685,0.1728,0.1754,0.1792,0.187,0.1912,0.2029,0.2083,0.2188,0.2245,0.2294,0.2303,0.23,0.2364,0.2362,0.2266,0.2256,0.2094,0.2066,0.2431,0.2431,0.2431,0.2431,0.2431,0,0.164,0.1652,0.168,0.1689,0.1726,0.1756,0.1817,0.1876,0.1965,0.2025,0.2122,0.2186,0.2276,0.232,0.2329,0.2314,0.2396,0.2279,0.2266,0.2097,0.207,0.2346,0.2336,0.2432,0.2432,0.2431,0.2431,0,0.162,0.163,0.1647,0.1695,0.1715,0.1745,0.1818,0.1875,0.1956,0.2039,0.2078,0.2197,0.2246,0.2296,0.2352,0.2327,0.2327,0.2302,0.2072,0.203,0.2183,0.2174,0.2214,0.221,0.2207,0.2204,0.2202,0,0.1605,0.1608,0.1648,0.1668,0.1692,0.1743,0.179,0.1867,0.1912,0.2031,0.2067,0.2151,0.2183,0.2209,0.2169,0.2151,0.225,0.1962,0.1923,0.2182,0.2166,0.2163,0.2159,0.1723,0.1717,0.1713,0.1709,0,0.1596,0.1608,0.1629,0.1667,0.1707,0.1743,0.1802,0.1813,0.1902,0.195,0.2,0.2028,0.205,0.1933,0.1902,0.1872,0.1945,0.1859,0.2216,0.1795,0.1718,0.1703,0.1715,0.1664,0.1669,0.1672,0.1675,0.1676,0.1599,0.1604,0.164,0.1659,0.1709,0.1727,0.1715,0.176,0.1779,0.1785,0.1855,0.1813,0.1806,0.1647,0.1574,0.1517,0.1671,0.1601,0.1617,0.1639,0.1562,0.1482,0.1369,0.1371,0.1373,0.1375,0.1377,0,0.1605,0.1609,0.1636,0.1659,0.1667,0.1711,0.1717,0.1666,0.1626,0.1629,0.1615,0.1421,0.1311,0.1318,0.115,0.1123,0.1132,0.1083,0.109,0.1133,0.1171,0.1073,0.0749,0.0747,0.0746,0.0744,0,0,0.1614,0.1617,0.1604,0.1592,0.1608,0.1607,0.1566,0.1485,0.1443,0.1324,0.1247,0.1274,0.1283,0.1018,0.0956,0.0833,0.0989,0.079,0.129,0.1343,0.138,0.1457,0.1352,0,0,0,0,0]},{"header":{"parameterUnit":"m.s-1","parameterCategory":2,"la1":30.2991,"la2":30.254,"lo1":-89.0895,"lo2":-89.0444,"dy":0.0017,"dx":0.0017,"nx":28,"ny":28,"refTime":"2024-04-15T21:00:00:Z","depth":"2","parameterNumber":3,"parameterNumberName":"V-component_of_CURRENTS"},"data":[0,0,0,0,0,0,0,0,0,0,0,0,0,0,0,0,0,0,0,0,0,0,0,0,0,0,0,0,0,0,0,0,0,0,0,0,0,0,0,0,0,0,0,0,0,0,0,0,0,0,0,0,0,0,0,0,0,0,0.013,0.013,0,0.0111,0.0111,0.011,0.0083,0.0083,0.0082,0.0082,0.0063,0.0063,0.0063,0,0,0,0,0,0,0,0,0,0,0,0,0,0.0145,0.0144,0.013,0.013,0.013,0.0111,0.0111,0.011,0.0083,0.0082,0.0082,0.0082,0.0063,0.0063,0.0063,0,0,0,0,0,0,0,0,0,0,0,0,0,0.0133,0.0144,0.013,0.0114,0.0113,0.0111,0.0111,0.011,0.0083,0.0082,0.0082,0.0081,0.0063,0.0063,0.0063,0.0075,0,0,0.0062,0.0062,0,0,0,0,0,0,0,0,0.0133,0.0132,0.0117,0.0115,0.0113,0.0099,0.0109,0.0099,0.0083,0.0094,0.0082,0.0081,0.0076,0.0075,0.0072,0.0074,0.0073,0.0062,0.0062,0.0062,0.0062,0,0,0,0,0,0,0,0.0134,0.0133,0.0122,0.0117,0.0115,0.0109,0.0106,0.0107,0.0088,0.0093,0.0091,0.009,0.0075,0.0072,0.0071,0.0073,0.0062,0.0062,0.0062,0.0062,0.0068,0.0068,0,0,0,0,0,0,0.0138,0.0134,0.0122,0.0121,0.0123,0.0109,0.0106,0.0104,0.0088,0.0085,0.009,0.0089,0.0073,0.0071,0.007,0.0083,0.0062,0.0062,0.0062,0.0068,0.0068,0.0068,0,0,0,0,0,0,0.0139,0.0138,0.0123,0.0128,0.0125,0.0109,0.0107,0.0104,0.0104,0.0087,0.0083,0.0095,0.0072,0.0071,0.0068,0.0082,0.0062,0.0062,0.0068,0.0068,0.0068,0.0108,0,0,0,0,0,0,0.0139,0.0138,0.0138,0.0128,0.0125,0.0125,0.0108,0.0104,0.0105,0.0102,0.0089,0.0086,0.0071,0.0069,0.0068,0.0081,0.0062,0.0067,0.0068,0.0068,0.0107,0.011,0.0113,0,0,0,0,0,0.014,0.0141,0.0138,0.0137,0.0126,0.0126,0.0124,0.011,0.0106,0.0108,0.0095,0.0087,0.0071,0.0069,0.0068,0.0082,0.0067,0.0068,0.0068,0.0105,0.011,0.0113,0,0,0,0,0,0,0.0142,0.0138,0.0135,0.0133,0.0132,0.0121,0.0122,0.0118,0.0111,0.0109,0.0092,0.0089,0.0091,0.0081,0.0079,0.0083,0.0068,0.0068,0.0096,0.01,0.0103,0.0119,0.0062,0,0,0,0,0,0.0146,0.0148,0.0143,0.0143,0.0144,0.0138,0.0137,0.013,0.0123,0.0119,0.0111,0.0101,0.0093,0.0092,0.0083,0.0091,0.0086,0.0097,0.0101,0.0103,0.0115,0.0122,0.0127,0.007,0.007,0.007,0,0,0.0146,0.0145,0.0145,0.0145,0.0143,0.0152,0.0135,0.0138,0.0146,0.012,0.0128,0.0114,0.0097,0.0099,0.01,0.0093,0.0115,0.0104,0.0107,0.0117,0.0123,0.0128,0.0133,0.0071,0.0071,0.0071,0,0,0.0154,0.015,0.0158,0.0162,0.0165,0.0163,0.0168,0.0166,0.0164,0.0172,0.015,0.0145,0.0141,0.0127,0.0121,0.0139,0.013,0.0136,0.0168,0.0174,0.0179,0.0183,0.0177,0.0181,0.0139,0.0139,0.0139,0,0.0156,0.0165,0.016,0.0172,0.0179,0.0173,0.0188,0.0188,0.0185,0.0194,0.018,0.0179,0.0156,0.0164,0.0159,0.0148,0.0147,0.0156,0.018,0.0184,0.0188,0.018,0.0184,0.0141,0.0141,0.014,0.014,0,0.0171,0.0182,0.0189,0.0205,0.0211,0.0222,0.0225,0.0236,0.0238,0.0241,0.0254,0.0227,0.0233,0.0215,0.0189,0.0206,0.0194,0.0183,0.0174,0.0196,0.0186,0.0189,0.0144,0.0143,0.0142,0.0142,0,0,0.0173,0.0196,0.02,0.0221,0.0231,0.0243,0.026,0.028,0.031,0.0302,0.0338,0.0306,0.0306,0.0297,0.027,0.0259,0.0267,0.0234,0.0233,0.0234,0.0278,0.0258,0.0258,0.0265,0.0266,0.0266,0.0257,0,0.0191,0.0224,0.0227,0.0267,0.0287,0.0293,0.0317,0.0334,0.0348,0.0382,0.0363,0.0384,0.0335,0.0344,0.0329,0.0287,0.0279,0.0271,0.0251,0.025,0.0235,0.0263,0.0264,0.0256,0.026,0.026,0.026,0,0.0207,0.0232,0.0267,0.0316,0.0326,0.035,0.04,0.0422,0.0457,0.0471,0.049,0.0483,0.0475,0.0431,0.039,0.0391,0.0343,0.03,0.0299,0.0272,0.0236,0.0235,0.0261,0.0265,0.0265,0.0264,0.0264,0,0.0221,0.0263,0.0297,0.031,0.0358,0.0384,0.0415,0.0453,0.0493,0.0537,0.058,0.0569,0.0584,0.0526,0.0438,0.0424,0.0385,0.0359,0.0296,0.0293,0.0287,0.0282,0.0336,0.0337,0.0337,0.0337,0.0337,0,0.0241,0.0274,0.0313,0.0338,0.0398,0.0418,0.049,0.0519,0.0579,0.0649,0.0638,0.0689,0.0611,0.0578,0.0481,0.0402,0.0426,0.0312,0.0297,0.0298,0.0295,0.0297,0.0292,0.0336,0.0336,0.0336,0.0336,0,0.0254,0.0274,0.0324,0.0382,0.0407,0.0452,0.0541,0.0601,0.065,0.0743,0.0766,0.0789,0.0758,0.0657,0.0563,0.0472,0.038,0.034,0.0338,0.0323,0.0272,0.027,0.0288,0.0287,0.0286,0.0286,0.0286,0,0.0261,0.0286,0.0357,0.0396,0.0428,0.0501,0.0564,0.063,0.0699,0.0808,0.086,0.0868,0.088,0.0733,0.058,0.0427,0.0392,0.0315,0.0286,0.0288,0.0271,0.0269,0.0268,0.0288,0.0288,0.0287,0.0287,0,0.0284,0.0307,0.0351,0.0432,0.0501,0.0582,0.0675,0.0731,0.0827,0.091,0.1002,0.1017,0.0916,0.0775,0.057,0.0457,0.0339,0.0305,0.0327,0.0297,0.0287,0.027,0.0269,0.0285,0.0285,0.0285,0.0285,0.0285,0.0302,0.0333,0.0396,0.0467,0.055,0.0648,0.0719,0.0824,0.0934,0.1043,0.1062,0.1076,0.0941,0.0677,0.0509,0.0333,0.0352,0.026,0.0261,0.0263,0.0262,0.0251,0.0242,0.0242,0.0242,0.0242,0.0242,0,0.0325,0.0364,0.0433,0.0523,0.06,0.0659,0.0788,0.0858,0.0984,0.1066,0.1127,0.096,0.0827,0.0663,0.0417,0.0268,0.025,0.0198,0.0212,0.0216,0.0219,0.0216,0.0183,0.0182,0.0182,0.0181,0,0,0.034,0.0392,0.0419,0.0533,0.061,0.0746,0.0816,0.0921,0.0998,0.1048,0.105,0.1039,0.0866,0.0658,0.0472,0.0335,0.03,0.0292,0.0356,0.04,0.0404,0.0274,0.0276,0,0,0,0,0]}],[{"header":{"parameterUnit":"m.s-1","parameterCategory":2,"la1":30.2991,"la2":30.254,"lo1":-89.0895,"lo2":-89.0444,"dy":0.0017,"dx":0.0017,"nx":28,"ny":28,"refTime":"2024-04-15T21:00:00:Z","depth":"4","parameterNumber":2,"parameterNumberName":"U-component_of_CURRENTS"},"data":[0,0,0,0,0,0,0,0,0,0,0,0,0,0,0,0,0,0,0,0,0,0,0,0,0,0,0,0,0,0,0,0,0,0,0,0,0,0,0,0,0,0,0,0,0,0,0,0,0,0,0,0,0,0,0,0,0,0,0.0911,0.0912,0,0.0901,0.09,0.09,0.0901,0.0902,0.0902,0.0903,0.0916,0.0915,0.0915,0,0,0,0,0,0,0,0,0,0,0,0,0,0.0899,0.0899,0.0911,0.0912,0.0912,0.0901,0.09,0.09,0.0901,0.0902,0.0902,0.0903,0.0916,0.0915,0.0915,0,0,0,0,0,0,0,0,0,0,0,0,0,0.0894,0.0899,0.0911,0.0914,0.0914,0.0901,0.09,0.0899,0.0901,0.0902,0.0903,0.0903,0.0916,0.0915,0.0915,0.0898,0,0,0.0915,0.0914,0,0,0,0,0,0,0,0,0.0894,0.0894,0.0913,0.0914,0.0914,0.0906,0.09,0.0901,0.0901,0.0902,0.0903,0.0904,0.0917,0.0916,0.0907,0.0899,0.0899,0.0915,0.0914,0.0914,0.0914,0,0,0,0,0,0,0,0.0895,0.0894,0.0903,0.0914,0.0914,0.0904,0.0904,0.09,0.0903,0.0902,0.0903,0.0908,0.0917,0.0907,0.0907,0.0899,0.0915,0.0914,0.0914,0.0914,0.093,0.093,0,0,0,0,0,0,0.0905,0.0895,0.0904,0.0903,0.091,0.0904,0.0904,0.0905,0.0902,0.0903,0.0907,0.0908,0.0907,0.0907,0.0908,0.0951,0.0914,0.0914,0.0914,0.0929,0.093,0.093,0,0,0,0,0,0,0.0904,0.0905,0.0904,0.0902,0.0902,0.0904,0.0905,0.0905,0.0918,0.0906,0.0907,0.0924,0.0908,0.0908,0.0924,0.095,0.0914,0.0914,0.0928,0.0929,0.093,0.0998,0,0,0,0,0,0,0.0904,0.0905,0.092,0.0903,0.0902,0.0911,0.0904,0.0904,0.092,0.0921,0.0921,0.0921,0.0908,0.0924,0.0924,0.0949,0.0914,0.0928,0.0929,0.093,0.0995,0.1001,0.1006,0,0,0,0,0,0.0903,0.0913,0.092,0.0922,0.0919,0.0912,0.0911,0.0912,0.092,0.0926,0.093,0.0922,0.093,0.0925,0.0924,0.0949,0.0927,0.0928,0.093,0.0992,0.1,0.1006,0,0,0,0,0,0,0.0909,0.0914,0.0921,0.0932,0.0933,0.0914,0.0923,0.0925,0.0931,0.0942,0.093,0.093,0.0958,0.0938,0.0932,0.0955,0.0927,0.0928,0.0975,0.0982,0.0987,0.0979,0.0913,0,0,0,0,0,0.092,0.0933,0.093,0.0941,0.0944,0.0939,0.0942,0.0945,0.0944,0.0948,0.0949,0.0949,0.0956,0.0958,0.0959,0.0968,0.0968,0.0982,0.0987,0.0992,0.0984,0.103,0.104,0.0934,0.0934,0.0934,0,0,0.0926,0.0932,0.094,0.0946,0.0945,0.0944,0.0942,0.0953,0.0959,0.0949,0.0965,0.0976,0.0965,0.0981,0.099,0.0971,0.1021,0.0994,0.0998,0.0987,0.1032,0.1043,0.1052,0.0935,0.0935,0.0935,0,0,0.0932,0.095,0.0958,0.0961,0.0972,0.0967,0.0978,0.0977,0.0986,0.1001,0.1003,0.1024,0.1024,0.1023,0.1021,0.1052,0.1057,0.1062,0.1077,0.1123,0.1133,0.1141,0.1155,0.1164,0.1056,0.1056,0.1056,0,0.0943,0.0948,0.096,0.0963,0.0968,0.098,0.0982,0.0989,0.0997,0.1007,0.1016,0.1042,0.1038,0.1058,0.107,0.1066,0.1089,0.1058,0.1133,0.1141,0.1149,0.1161,0.117,0.106,0.1059,0.1059,0.1059,0,0.0943,0.0955,0.0958,0.0969,0.0976,0.0982,0.0992,0.1012,0.1031,0.1037,0.1078,0.1085,0.1095,0.1107,0.1097,0.1147,0.1145,0.1147,0.1122,0.1164,0.1173,0.1182,0.1065,0.1063,0.1062,0.1061,0,0,0.0942,0.0956,0.096,0.0965,0.0981,0.0983,0.1005,0.1019,0.1041,0.1069,0.1098,0.112,0.1139,0.1137,0.1146,0.1181,0.1253,0.119,0.1191,0.1211,0.1349,0.1233,0.1231,0.1289,0.1291,0.1292,0.1335,0,0.0938,0.0942,0.0954,0.0963,0.0961,0.0985,0.1,0.1023,0.1053,0.1087,0.1116,0.1155,0.1146,0.1178,0.1209,0.1256,0.1278,0.1239,0.1296,0.1297,0.1196,0.1237,0.1298,0.1341,0.1343,0.1345,0.1346,0,0.0927,0.0931,0.0938,0.0955,0.0959,0.0976,0.1012,0.103,0.1077,0.1107,0.1151,0.1183,0.1239,0.1234,0.1316,0.1304,0.132,0.1347,0.135,0.1218,0.1196,0.1289,0.136,0.1359,0.1358,0.1357,0.1356,0,0.0907,0.092,0.0926,0.0931,0.0954,0.0976,0.0998,0.104,0.1066,0.114,0.1178,0.1238,0.1291,0.1339,0.1376,0.1371,0.1463,0.1458,0.1356,0.1348,0.1411,0.1402,0.1499,0.1499,0.1499,0.1499,0.1499,0,0.0884,0.0891,0.0923,0.0926,0.0942,0.0971,0.1006,0.1039,0.1099,0.1131,0.1196,0.1234,0.133,0.1383,0.1403,0.1399,0.1481,0.1357,0.1355,0.1436,0.1429,0.1417,0.1407,0.15,0.15,0.15,0.1499,0,0.0852,0.0873,0.0882,0.0917,0.0933,0.0949,0.1006,0.1025,0.11,0.1152,0.1187,0.1267,0.1337,0.1396,0.1477,0.1422,0.1441,0.141,0.1481,0.1483,0.1287,0.128,0.1308,0.1304,0.1301,0.1298,0.1296,0,0.0832,0.0834,0.0873,0.0881,0.0902,0.0934,0.0949,0.1017,0.1038,0.115,0.1161,0.1265,0.1306,0.1321,0.1384,0.1408,0.1382,0.1367,0.1326,0.1273,0.127,0.1268,0.1265,0.1291,0.129,0.1289,0.1289,0,0.0791,0.0817,0.0826,0.0836,0.0857,0.0867,0.0901,0.0914,0.0992,0.1082,0.1117,0.1153,0.1211,0.1254,0.1279,0.1289,0.1373,0.1335,0.1341,0.1301,0.1254,0.1253,0.1254,0.1278,0.1279,0.128,0.1281,0,0.0766,0.0758,0.0773,0.0774,0.0788,0.0773,0.0811,0.0832,0.0866,0.0995,0.1003,0.1106,0.1199,0.1191,0.1214,0.1219,0.1195,0.1141,0.1156,0.1169,0.1101,0.1019,0.0969,0,0,0,0,0,0.073,0.0706,0.0704,0.0686,0.0694,0.0703,0.0752,0.0794,0.0884,0.0881,0.0942,0.099,0.1031,0.1071,0.1049,0.114,0.1193,0.1105,0.1137,0.1218,0.1231,0.1162,0,0,0,0,0,0,0.0698,0.0694,0.0677,0.0606,0.058,0.0575,0.0606,0.068,0.0677,0.079,0.0819,0.0906,0.0962,0.104,0.1024,0.1037,0.1029,0.1169,0.1165,0.1211,0.1222,0.1232,0.1166,0,0,0,0,0]},{"header":{"parameterUnit":"m.s-1","parameterCategory":2,"la1":30.2991,"la2":30.254,"lo1":-89.0895,"lo2":-89.0444,"dy":0.0017,"dx":0.0017,"nx":28,"ny":28,"refTime":"2024-04-15T21:00:00:Z","depth":"4","parameterNumber":3,"parameterNumberName":"V-component_of_CURRENTS"},"data":[0,0,0,0,0,0,0,0,0,0,0,0,0,0,0,0,0,0,0,0,0,0,0,0,0,0,0,0,0,0,0,0,0,0,0,0,0,0,0,0,0,0,0,0,0,0,0,0,0,0,0,0,0,0,0,0,0,0,0.0061,0.0061,0,0.0053,0.0053,0.0053,0.004,0.0039,0.0039,0.0039,0.0018,0.0018,0.0017,0,0,0,0,0,0,0,0,0,0,0,0,0,0.0067,0.0067,0.0061,0.0061,0.0061,0.0053,0.0053,0.0053,0.004,0.0039,0.0039,0.0039,0.0018,0.0018,0.0017,0,0,0,0,0,0,0,0,0,0,0,0,0,0.0063,0.0067,0.0061,0.0053,0.0052,0.0053,0.0053,0.0053,0.004,0.0039,0.0039,0.0039,0.0018,0.0018,0.0017,0.0022,0,0,0.0016,0.0015,0,0,0,0,0,0,0,0,0.0063,0.0062,0.0054,0.0054,0.0053,0.0047,0.0047,0.0042,0.004,0.0045,0.0039,0.0039,0.0027,0.0025,0.0025,0.0021,0.002,0.0016,0.0015,0.0015,0.0015,0,0,0,0,0,0,0,0.0063,0.0063,0.0058,0.0054,0.0053,0.0051,0.005,0.0046,0.0038,0.0044,0.0043,0.0042,0.0026,0.0026,0.0024,0.002,0.0016,0.0015,0.0015,0.0015,0.0032,0.0033,0,0,0,0,0,0,0.0064,0.0063,0.0058,0.0058,0.0057,0.0051,0.005,0.0049,0.0038,0.0036,0.0043,0.0042,0.0027,0.0025,0.0024,0.0041,0.0015,0.0015,0.0014,0.0031,0.0032,0.0033,0,0,0,0,0,0,0.0064,0.0064,0.0059,0.006,0.0059,0.0051,0.0051,0.0049,0.005,0.0037,0.0035,0.0045,0.0026,0.0024,0.0027,0.0039,0.0014,0.0014,0.003,0.0032,0.0033,0.0068,0,0,0,0,0,0,0.0065,0.0064,0.0065,0.006,0.0059,0.0062,0.0051,0.0049,0.005,0.0049,0.0038,0.0036,0.0026,0.0028,0.0027,0.0038,0.0014,0.0029,0.0031,0.0032,0.0065,0.007,0.0073,0,0,0,0,0,0.0065,0.0067,0.0065,0.0065,0.0061,0.0062,0.0062,0.0055,0.005,0.0054,0.005,0.0036,0.0036,0.0029,0.0027,0.0038,0.0029,0.0031,0.0032,0.0064,0.0069,0.0073,0,0,0,0,0,0,0.0067,0.0066,0.0064,0.0065,0.0065,0.006,0.0062,0.0058,0.0058,0.0057,0.0045,0.0042,0.0049,0.0041,0.0033,0.0048,0.0031,0.0032,0.0055,0.006,0.0064,0.007,0.0013,0,0,0,0,0,0.0069,0.0073,0.007,0.0072,0.0073,0.0069,0.0069,0.0066,0.0064,0.0064,0.0058,0.0054,0.0055,0.0055,0.0052,0.0061,0.0045,0.0068,0.0072,0.0075,0.008,0.0068,0.0071,0.0039,0.0039,0.0039,0,0,0.0069,0.007,0.0071,0.0073,0.0073,0.0082,0.0068,0.0072,0.0082,0.0062,0.0074,0.0066,0.006,0.007,0.0073,0.0065,0.0076,0.0078,0.008,0.0083,0.007,0.0073,0.0076,0.004,0.0039,0.0039,0,0,0.0074,0.0074,0.008,0.0085,0.0089,0.009,0.0093,0.0093,0.0096,0.0106,0.0096,0.0098,0.0097,0.0098,0.0098,0.0123,0.0096,0.0121,0.0147,0.0136,0.0139,0.014,0.0119,0.0119,0.0125,0.0125,0.0125,0,0.0075,0.0083,0.0082,0.0093,0.0102,0.0097,0.0111,0.0116,0.0117,0.0126,0.0115,0.012,0.0112,0.0128,0.0137,0.0132,0.0116,0.0129,0.0141,0.0142,0.0144,0.0121,0.012,0.0127,0.0127,0.0127,0.0126,0,0.0086,0.0097,0.0102,0.0118,0.0127,0.0138,0.0147,0.0156,0.0159,0.0164,0.0176,0.0165,0.0168,0.0167,0.016,0.0172,0.0154,0.0144,0.0127,0.0149,0.0124,0.0123,0.013,0.0129,0.0128,0.0128,0,0,0.0082,0.0106,0.0109,0.0126,0.0143,0.0155,0.0177,0.0198,0.0217,0.0214,0.0233,0.0233,0.0223,0.0222,0.021,0.0203,0.0197,0.0181,0.018,0.0157,0.0163,0.0152,0.0149,0.0187,0.0187,0.0187,0.014,0,0.0093,0.012,0.0131,0.0164,0.0182,0.0194,0.0219,0.0238,0.0249,0.0265,0.0257,0.0268,0.0246,0.0247,0.0236,0.0211,0.0196,0.021,0.0148,0.0146,0.0131,0.0148,0.0188,0.0138,0.0138,0.0138,0.0137,0,0.0103,0.0123,0.0155,0.0198,0.0208,0.0229,0.0271,0.0292,0.0314,0.0321,0.0324,0.0314,0.0311,0.0283,0.0244,0.0253,0.0211,0.0184,0.0181,0.0159,0.0133,0.0113,0.0134,0.0135,0.0135,0.0135,0.0135,0,0.0105,0.0143,0.0171,0.0185,0.0228,0.0251,0.0278,0.0309,0.0337,0.0356,0.037,0.0357,0.0351,0.0306,0.025,0.0247,0.0195,0.0182,0.0128,0.0126,0.0133,0.0132,0.0145,0.0145,0.0145,0.0145,0.0146,0,0.0116,0.0141,0.0176,0.0195,0.0239,0.0266,0.0315,0.0337,0.0372,0.0409,0.0398,0.0407,0.0356,0.032,0.0261,0.0192,0.02,0.0136,0.0118,0.0149,0.0149,0.0132,0.0131,0.0144,0.0144,0.0144,0.0145,0,0.0114,0.0136,0.0172,0.0221,0.024,0.0272,0.0339,0.0373,0.0405,0.0447,0.0455,0.0445,0.0405,0.0343,0.0268,0.021,0.0145,0.0112,0.0147,0.0131,0.0078,0.0079,0.0054,0.0053,0.0053,0.0052,0.0052,0,0.0113,0.013,0.0184,0.0212,0.0237,0.029,0.033,0.0381,0.0419,0.0468,0.0484,0.0464,0.0446,0.0332,0.0262,0.0152,0.0129,0.0083,0.0086,0.0086,0.0071,0.0073,0.0075,0.0051,0.0051,0.0051,0.0051,0,0.0112,0.0128,0.016,0.0211,0.0257,0.0313,0.0374,0.0406,0.0469,0.0494,0.051,0.0466,0.0417,0.0332,0.0247,0.0165,0.0112,0.0077,0.0077,0.0079,0.0082,0.0068,0.0071,0.0049,0.0049,0.0049,0.0049,0,0.0107,0.0123,0.016,0.0212,0.0265,0.0325,0.0363,0.0416,0.0458,0.0516,0.0513,0.0476,0.0454,0.0338,0.026,0.0184,0.0159,0.0117,0.0115,0.0116,0.0149,0.0162,0.0143,0,0,0,0,0,0.0103,0.0124,0.0162,0.0223,0.0276,0.0311,0.0387,0.0425,0.0485,0.0497,0.0513,0.0472,0.0375,0.0332,0.0254,0.0237,0.0137,0.014,0.0085,0.0037,0.004,0.0067,0,0,0,0,0,0,0.0099,0.0129,0.0154,0.022,0.0262,0.0325,0.0375,0.042,0.0433,0.0477,0.0428,0.0427,0.0331,0.0416,0.0243,0.0222,0.017,0.0103,0.0101,0.0036,0.0038,0.004,0.0069,0,0,0,0,0]}]]